TimeCET,TemperatureF,Dew PointF,Humidity,Sea Level PressureIn,VisibilityMPH,Wind Direction,Wind SpeedMPH,Gust SpeedMPH,PrecipitationIn,Events,Conditions,WindDirDegrees,DateUTC
12:00 AM,27,25,87,30.39,,East,2.2,,,,,90,2013-12-18 23:00:00
1:00 AM,26,25,92,30.37,,Calm,Calm,,,,,,2013-12-19 00:00:00
2:00 AM,26,24,90,30.36,,East,2.2,,,,,80,2013-12-19 01:00:00
3:00 AM,26,24,90,30.35,,Calm,Calm,,,,,,2013-12-19 02:00:00
4:00 AM,25,24,94,30.34,,Calm,Calm,,,,,,2013-12-19 03:00:00
5:00 AM,25,24,94,30.32,,Calm,Calm,,,,,,2013-12-19 04:00:00
6:00 AM,25,24,93,30.32,,SSE,2.2,,,,,150,2013-12-19 05:00:00
7:00 AM,25,24,92,30.32,,SE,4.5,,,,,130,2013-12-19 06:00:00
8:00 AM,25,24,92,30.31,,SSE,2.2,,,,,150,2013-12-19 07:00:00
9:00 AM,25,24,92,30.30,,ESE,4.5,,,,,120,2013-12-19 08:00:00
10:00 AM,25,24,95,30.30,,ESE,4.5,,,,,120,2013-12-19 09:00:00
11:00 AM,26,25,93,30.29,,SE,2.2,,,,,130,2013-12-19 10:00:00
12:00 PM,26,25,93,30.29,,South,2.2,,,,,190,2013-12-19 11:00:00
1:00 PM,27,25,90,30.26,,SSE,2.2,,,,,150,2013-12-19 12:00:00
2:00 PM,27,25,88,30.26,,South,2.2,,,,,180,2013-12-19 13:00:00
3:00 PM,27,25,87,30.26,,ESE,2.2,,,,,120,2013-12-19 14:00:00
4:00 PM,27,25,87,30.25,,ESE,4.5,,,,,120,2013-12-19 15:00:00
5:00 PM,26,24,89,30.26,,SE,2.2,,,,,140,2013-12-19 16:00:00
6:00 PM,27,24,86,30.26,,South,4.5,,,,,190,2013-12-19 17:00:00
7:00 PM,26,25,92,30.26,,South,6.7,,,,,180,2013-12-19 18:00:00
8:00 PM,27,25,90,30.27,,South,4.5,,,,,180,2013-12-19 19:00:00
9:00 PM,27,25,90,30.28,,South,2.2,,,,,170,2013-12-19 20:00:00
10:00 PM,27,25,91,30.29,,South,2.2,,,,,180,2013-12-19 21:00:00
11:00 PM,26,25,96,30.30,,Calm,Calm,,,,,,2013-12-19 22:00:00